Regional Weather Roundup
Issued by NWS Charleston, SC

Current Version | Previous Version | Graphics & Text | Print | Product List | Glossary On
Versions: 1 2 3 4 5 6 7 8 9 10 11 12 13 14 15 16 17 18 19 20 21 22 23 24 25 26 27 28 29 30 31 32 33 34 35 36 37 38 39 40 41 42 43 44 45 46 47 48 49 50
000 ASUS42 KCHS 231012 RWRCHS REGIONAL WEATHER ROUNDUP NATIONAL WEATHER SERVICE CHARLESTON SC 500 AM EST MON JAN 23 2017 NOTE: "FAIR" INDICATES FEW OR NO CLOUDS BELOW 12,000 FEET WITH NO SIGNIFICANT WEATHER AND/OR OBSTRUCTIONS TO VISIBILITY. NOT ALL STATIONS ARE QUALITY CONTROLLED. USE DATA WITH CAUTION... ESPECIALLY DEWPOINT OBSERVATIONS. SCZ027-030-031-034>040-042>050-231100- ...SOUTHEAST SOUTH CAROLINA... CITY SKY/WX TMP DP RH WIND PRES REMARKS N CHARLESTON CLEAR 50 47 89 S7 29.30F WATERFRONT PRK N/A 55 52 89 VRB3 29.30F MOUNT PLEASANT FAIR 52 48 87 S6 29.31S JOHNS ISLAND NOT AVBL PINOPOLIS N/A 54 50 87 VRB3 29.22S MONCKS CORNER FAIR 48 46 93 CALM 29.29S SUMMERVILLE FAIR N/A N/A N/A CALM 29.29F BEAUFORT MCAS CLEAR 55 49 80 SW10 29.29F BEAUFORT ARPT FAIR 55 48 76 SW9 29.29F HILTON HEAD IS CLEAR 55 48 76 SW10G17 29.31F WALTERBORO SUNNY 50 48 93 S5 29.29F ALLENDALE FAIR 52 50 93 CALM 29.25F ...SOUTHERN MIDLANDS AND PEE DEE... CITY SKY/WX TMP DP RH WIND PRES REMARKS GEORGETOWN FAIR 50 46 87 CALM 29.32S KINGSTREE FAIR 50 46 87 CALM 29.29R ORANGEBURG CLEAR 50 48 93 S7 29.26F BARNWELL FAIR 52 50 93 CALM 29.26F AIKEN FAIR 46 45 93 S8 29.26F MANNING FAIR 48 41 76 CALM 29.28S COLUMBIA CLEAR 50 46 86 S6 29.23F SUMTER PTCLDY 50 46 87 S5 29.24S FLORENCE CLEAR 52 49 89 SW6 29.26S MYRTLE BEACH CLEAR 54 46 76 W8 29.32R N MYRTLE BEACH CLEAR 54 48 80 W9 29.29R $$ GAZ063-065-086>088-099>101-113>116-118-119-134>141-150-231100- ...SOUTHEAST GEORGIA... CITY SKY/WX TMP DP RH WIND PRES REMARKS SAVANNAH ARPT PTCLDY 54 47 77 SW10 29.31F HUNTER AAF CLEAR 53 52 97 SW9 29.28F FORT STEWART CLEAR 54 48 80 SW7 29.29F STATESBORO CLEAR 54 50 87 SW8 29.29S SYLVANIA SUNNY N/A N/A N/A SW6 29.28F CLAXTON FAIR N/A N/A N/A S5 29.30F ...CSRA...CENTRAL AND FAR SOUTHEAST GEORGIA... CITY SKY/WX TMP DP RH WIND PRES REMARKS THOMSON CLOUDY 53 50 89 SW7 29.27F AUGUSTA-BUSH PTCLDY 51 47 86 S5 29.24F AUGUSTA-DANIEL CLEAR 51 45 79 SW5 29.24F SWAINSBORO FAIR 52 46 82 SW8 29.27F VIDALIA PTCLDY 54 52 94 SW7 29.29F EASTMAN CLOUDY 55 40 57 SW6G18 29.29F HAZLEHURST FAIR 54 51 90 SW9 29.29F ALMA CLEAR 51 49 92 S8 29.32F WAYCROSS CLEAR 55 55 100 SW8 29.35F JESUP FAIR 52 48 87 SW6 29.33F BAXLEY FAIR 52 52 100 SW7 29.31F BRUNSWICK CLEAR 55 52 88 SW12 29.36F SAINT SIMONS PTCLDY 57 52 83 SW14 29.35F $$ SCZ027-028-034-036>038-045-046-048>050-GAZ119-141-231100- ...LAKE AND SUPPLEMENTAL COASTAL OBSERVATIONS... STATION/POSITION TIME TEMP WIND PRES WAVE SWELL AIR SEA DIR/SP/G HT/PER HT/PER/DIR (UTC) (F) (DEG/KT/KT) (MB) (FT/S) (FT/S/D) WINYAH BAY NOT AVBL LAKE MURRAY 0920 53 220/ 10/ 13 989.8F ACE BASIN NERRS 0845 53 CALM 993.0 FORT PULASKI 0948 56 59 230/ 9/ 13 992.7F SAPELO ISLAND 0900 57 220/ 12 994.0 $$ ANZ835-935-AMZ111-154-330-350-352-354-370-450-454-472-231100- ...C-MAN AND BUOY OBSERVATIONS... STATION/POSITION TIME TEMP WIND PRES WAVE SWELL AIR SEA DIR/SP/G HT/PER HT/PER/DIR (UTC) (F) (DEG/KT/KT) (MB) (FT/S) (FT/S/D) BUOY 41004 0950 63 66 250/ 17/ 21 992.6R 10/ 8 8/190/ 8 BUOY 41008 0850 60 60 220/ 19/ 23 993.0 5/ 7 2/ 90/13 FOLLY BEACH CMAN 0900 56 230/ 7/ 9 993.2F CAPERS NEARSHORE 0908 57 56 270/ 10/ 16 992.3F FRIPP NEARSHORE 0908 59 58 230/ 14/ 17 992.7F STATION/POSITION TIME TEMP WIND PRES WAVE SWELL AIR SEA DIR/SP/G HT/PER HT/PER/DIR (UTC) (F) (DEG/KT/KT) (MB) (FT/S) (FT/S/D) 5E ST. MARYS GA 0930 62 N/A 4/ 6 2/120/13 FRYING PAN BUOY 0950 63 69 230/ 25/ 31 992.4R 10/ 7 3/100/13 BUOY 41025 0950 72 72 150/ 23/ 27 991.6F 7/ 5 3/ 60/11 CAPE LOOKOUT NC 0900 63 190/ 26/ 31 990.7F BUOY 41002 0950 67 71 240/ 29/ 39 997.5R 14/ 9 11/190/ 9 BUOY 41010 NOT AVBL ST AUGUSTINE FL 1000 59 65 230/ 6/ 8 997.3F $$

USA.gov is the U.S. government's official web portal to all federal, state and local government web resources and services.